Date String (YYYY-MM-DD hh:mm:ss) UTC,Instrument flags,absolute air pressure of the measurement (hPa),sample flow rate (lpm),inlet stack bypass flow (lpm),air temperature of the measurement (°C),ambient temperature measured by the external sensor (°C),aerosol sample conditioner tube jacket temperature (°C),OPC LED temperature (°C),internal box temperature (°C),relative humidity of the measurement (%),span deviation,mass concentration of particles derived from Lorenz-Mie calculation of OPC scattering (μg/m³),mass concentration of particles derived from Lorenz-Mie calculation of OPC scattering (μg/m³),mass concentration of particles derived from Lorenz-Mie calculation of OPC scattering (μg/m³)
DateTimeUTC,F1_M11,P_M11,Q1_M11,Q2_M11,T1_M11,T2_M11,T3_M11,T4_M11,T5_M11,U1_M11,ZSPAN_M11,X2_M11,X0_M11,X1_M11
2024-06-17 19:00:00,SystemResetWarning,0817.9,5.01,000.00,029.3,025.9,000.0,038.1,030.0,033.1,0001.2,0008.46,0024.62,0006.92
2024-06-17 19:01:00,SystemResetWarning,0817.8,5.01,000.00,029.1,026.0,000.0,038.0,029.9,033.5,0002.1,0008.39,0023.98,0006.93
2024-06-17 19:02:00,SystemResetWarning,0817.7,5.00,000.00,029.0,026.4,000.0,037.9,030.1,033.8,0001.9,0008.34,0024.52,0006.93
2024-06-17 19:03:00,SystemResetWarning,0817.7,5.01,000.00,029.1,026.9,000.0,037.8,030.4,033.9,0002.0,0008.32,0024.78,0006.94
2024-06-17 19:04:00,SystemResetWarning,0817.8,5.00,000.00,029.1,027.3,000.0,037.7,030.6,034.3,0002.7,0008.30,0023.59,0006.95
2024-06-17 19:05:00,SystemResetWarning,0817.7,5.01,000.00,029.2,027.7,000.0,037.7,030.8,034.9,0002.9,0008.36,0023.36,0006.96
2024-06-17 19:06:00,SystemResetWarning,0817.8,5.00,000.00,029.2,028.0,000.0,037.7,030.9,034.0,0002.8,0008.42,0023.58,0006.99
2024-06-17 19:07:00,SystemResetWarning,0817.8,5.01,000.00,029.3,028.3,000.0,037.7,031.1,034.1,0002.9,0008.48,0022.22,0007.04
2024-06-17 19:08:00,SystemResetWarning,0817.8,4.99,000.00,029.4,028.5,000.0,037.7,031.2,034.0,0002.6,0008.54,0020.60,0007.07
2024-06-17 19:09:00,SystemResetWarning,0817.7,5.00,000.00,029.4,028.7,000.0,037.7,031.2,033.7,0002.3,0008.57,0018.89,0007.07
2024-06-17 19:10:00,SystemResetWarning,0817.8,5.00,000.00,029.5,028.9,000.0,037.7,031.3,033.8,0002.4,0008.57,0018.35,0007.09
2024-06-17 19:11:00,SystemResetWarning,0817.8,5.00,000.00,029.6,029.0,000.0,037.8,031.4,033.5,0002.4,0008.63,0019.36,0007.11
2024-06-17 19:12:00,SystemResetWarning,0817.8,5.00,000.00,029.6,029.1,000.0,037.8,031.5,033.6,0002.1,0008.65,0021.06,0007.11
2024-06-17 19:13:00,SystemResetWarning,0817.8,5.00,000.00,029.7,029.2,000.0,037.9,031.5,033.9,0001.8,0008.68,0021.04,0007.12
2024-06-17 19:14:00,SystemResetWarning,0817.7,4.99,000.00,029.8,029.3,000.0,037.9,031.6,034.0,0001.3,0008.70,0020.61,0007.12
2024-06-17 19:15:00,SystemResetWarning,0817.6,5.00,000.00,029.8,029.4,000.0,037.9,031.7,034.4,0000.5,0008.70,0020.46,0007.13
2024-06-17 19:16:00,SystemResetWarning,0817.6,4.99,000.00,029.8,028.8,000.0,038.0,031.4,034.7,0000.5,0008.67,0020.05,0007.13
2024-06-17 19:17:00,SystemResetWarning,0817.5,5.01,000.00,029.5,026.6,000.0,038.0,030.3,034.5,0000.0,0008.71,0019.97,0007.12
2024-06-17 19:18:00,SystemResetWarning,0817.5,5.00,000.00,029.2,025.8,000.0,038.0,029.9,035.0,-000.3,0008.70,0020.99,0007.11
2024-06-17 19:19:00,SystemResetWarning,0817.5,5.01,000.00,029.0,026.1,000.0,037.9,030.0,035.2,-000.6,0008.69,0021.43,0007.11
2024-06-17 19:20:00,SystemResetWarning,0817.6,5.00,000.00,029.0,026.5,000.0,037.8,030.2,035.2,-000.7,0008.68,0022.35,0007.13
2024-06-17 19:21:00,SystemResetWarning,0817.6,5.00,000.00,029.0,027.0,000.0,037.7,030.5,035.3,-001.3,0008.67,0025.67,0007.13
2024-06-17 19:22:00,SystemResetWarning,0817.6,4.99,000.00,029.1,027.4,000.0,037.7,030.7,035.2,-001.3,0008.69,0025.91,0007.14
2024-06-17 19:23:00,SystemResetWarning,0817.7,4.99,000.00,029.1,027.8,000.0,037.7,030.8,035.0,-001.3,0008.68,0024.65,0007.15
2024-06-17 19:24:00,SystemResetWarning,0817.7,5.00,000.00,029.2,028.1,000.0,037.7,031.0,034.9,-001.1,0008.69,0024.42,0007.17
2024-06-17 19:25:00,SystemResetWarning,0817.6,5.00,000.00,029.3,028.3,000.0,037.7,031.1,034.5,-000.8,0008.67,0024.27,0007.19
2024-06-17 19:26:00,SystemResetWarning,0817.5,5.01,000.00,029.3,028.6,000.0,037.7,031.2,034.1,-000.3,0008.65,0024.19,0007.21
2024-06-17 19:27:00,SystemResetWarning,0817.5,5.00,000.00,029.4,028.8,000.0,037.7,031.3,034.1,-000.7,0008.70,0025.24,0007.26
2024-06-17 19:28:00,SystemResetWarning,0817.5,5.00,000.00,029.5,028.9,000.0,037.7,031.3,033.8,-000.5,0008.66,0025.25,0007.29
2024-06-17 19:29:00,SystemResetWarning,0817.5,5.00,000.00,029.5,029.1,000.0,037.7,031.4,033.7,-000.4,0008.67,0024.37,0007.33
2024-06-17 19:30:00,SystemResetWarning,0817.6,4.99,000.00,029.6,029.2,000.0,037.8,031.5,034.3,-000.4,0008.66,0025.34,0007.35
2024-06-17 19:31:00,SystemResetWarning,0817.5,5.00,000.00,029.7,029.3,000.0,037.8,031.6,034.1,-000.5,0008.67,0025.40,0007.36
2024-06-17 19:32:00,SystemResetWarning,0817.5,4.99,000.00,029.8,029.4,000.0,037.9,031.6,033.9,-000.6,0008.66,0023.15,0007.35
2024-06-17 19:33:00,SystemResetWarning,0817.6,5.01,000.00,029.8,029.4,000.0,037.9,031.7,033.9,-000.5,0008.64,0023.09,0007.37
2024-06-17 19:34:00,SystemResetWarning,0817.5,4.99,000.00,029.7,028.0,000.0,038.0,030.9,034.1,-000.5,0008.64,0023.09,0007.38
2024-06-17 19:35:00,SystemResetWarning,0817.4,5.00,000.00,029.3,026.1,000.0,038.0,030.0,034.5,-000.8,0008.70,0022.87,0007.40
2024-06-17 19:36:00,SystemResetWarning,0817.4,5.01,000.00,029.0,025.8,000.0,038.0,029.8,034.9,-000.3,0008.74,0023.88,0007.43
2024-06-17 19:37:00,SystemResetWarning,0817.3,5.01,000.00,028.9,026.2,000.0,037.8,030.0,035.2,-000.7,0008.80,0024.34,0007.45
2024-06-17 19:38:00,SystemResetWarning,0817.4,4.99,000.00,028.9,026.7,000.0,037.7,030.3,036.1,-000.4,0008.83,0025.14,0007.47
2024-06-17 19:39:00,SystemResetWarning,0817.4,5.00,000.00,029.0,027.2,000.0,037.7,030.5,035.3,-000.1,0008.86,0025.68,0007.47
2024-06-17 19:40:00,SystemResetWarning,0817.4,5.00,000.00,029.0,027.6,000.0,037.6,030.7,035.2,0000.2,0008.86,0025.89,0007.49
2024-06-17 19:41:00,SystemResetWarning,0817.3,5.00,000.00,029.1,027.9,000.0,037.6,030.8,034.7,0000.4,0008.95,0025.38,0007.51
2024-06-17 19:42:00,SystemResetWarning,0817.3,5.01,000.00,029.2,028.2,000.0,037.6,031.0,034.8,0000.7,0009.03,0025.17,0007.56
2024-06-17 19:43:00,SystemResetWarning,0817.3,5.00,000.00,029.2,028.4,000.0,037.6,031.1,035.3,0001.0,0009.14,0026.78,0007.63
2024-06-17 19:44:00,SystemResetWarning,0817.3,5.00,000.00,029.3,028.6,000.0,037.6,031.2,034.6,0000.8,0009.18,0025.61,0007.67
2024-06-17 19:45:00,SystemResetWarning,0817.3,4.99,000.00,029.4,028.8,000.0,037.7,031.3,034.3,0001.4,0009.31,0025.52,0007.73
2024-06-17 19:46:00,SystemResetWarning,0817.3,4.99,000.00,029.5,028.9,000.0,037.7,031.4,034.2,0001.2,0009.35,0027.53,0007.76
2024-06-17 19:47:00,SystemResetWarning,0817.2,5.00,000.00,029.6,029.1,000.0,037.7,031.4,034.4,0001.0,0009.32,0027.21,0007.77
2024-06-17 19:48:00,SystemResetWarning,0817.3,5.00,000.00,029.6,029.2,000.0,037.8,031.5,033.7,0001.0,0009.35,0026.60,0007.79
2024-06-17 19:49:00,SystemResetWarning,0817.3,5.00,000.00,029.7,029.3,000.0,037.8,031.6,033.4,0001.1,0009.41,0025.61,0007.83
2024-06-17 19:50:00,SystemResetWarning,0817.3,5.00,000.00,029.8,029.4,000.0,037.9,031.7,033.2,0001.0,0009.46,0024.92,0007.87
2024-06-17 19:51:00,SystemResetWarning,0817.3,4.99,000.00,029.8,029.0,000.0,037.9,031.4,032.7,0000.6,0009.55,0025.49,0007.94
2024-06-17 19:52:00,SystemResetWarning,0817.2,5.00,000.00,029.5,026.9,000.0,038.0,030.5,032.8,0001.1,0009.61,0026.10,0007.98
2024-06-17 19:53:00,SystemResetWarning,0817.1,5.00,000.00,029.2,025.7,000.0,038.0,029.9,034.2,0001.5,0009.62,0025.63,0008.03
2024-06-17 19:54:00,SystemResetWarning,0817.1,5.02,000.00,029.0,025.9,000.0,037.9,029.9,034.5,0001.8,0009.66,0025.32,0008.09
2024-06-17 19:55:00,SystemResetWarning,0817.1,5.00,000.00,028.9,026.4,000.0,037.7,030.1,035.3,0001.5,0009.74,0026.13,0008.14
2024-06-17 19:56:00,SystemResetWarning,0817.1,5.00,000.00,028.9,026.9,000.0,037.7,030.3,035.0,0001.7,0009.75,0026.48,0008.17
2024-06-17 19:57:00,SystemResetWarning,0817.1,5.00,000.00,029.0,027.3,000.0,037.6,030.6,034.6,0001.9,0009.76,0024.71,0008.22
2024-06-17 19:58:00,SystemResetWarning,0817.1,4.99,000.00,029.1,027.7,000.0,037.6,030.7,034.4,0002.1,0009.87,0025.74,0008.30
2024-06-17 19:59:00,SystemResetWarning,0817.1,5.00,000.00,029.1,028.0,000.0,037.6,030.9,034.6,0002.1,0009.98,0026.76,0008.38
